Printer-friendly version

IAU Minor Planet Center

Minor Planet Center

MPEC 2006-B38 : 2006 BX7

The following Minor Planet Electronic Circular may be linked-to from your own Web pages, but must not otherwise be redistributed electronically.


Read MPEC 2006-B37 Read MPEC 2006-B39


M.P.E.C. 2006-B38                                Issued 2006 Jan. 24, 12:24 UT

     The Minor Planet Electronic Circulars contain information on unusual
         minor planets and routine data on comets.  They are published
   on behalf of Commission 20 of the International Astronomical Union by the
          Minor Planet Center, Smithsonian Astrophysical Observatory,
                          Cambridge, MA 02138, U.S.A.

                  Supported in part by the Brinson Foundation
                  Supported in part by the TABASGO Foundation
             Prepared using the Tamkin Foundation Computer Network

                              MPC@CFA.HARVARD.EDU
          URL http://cfa-www.harvard.edu/iau/mpc.html  ISSN 1523-6714

                                   2006 BX7

Observations:
     K06B07X* C2006 01 22.41157 07 58 01.77 +35 50 57.0          19.7 V EB038703
     K06B07X  C2006 01 22.41244 07 58 01.59 +35 50 49.7          19.9 V EB038703
     K06B07X  C2006 01 22.41331 07 58 01.48 +35 50 43.5          19.6 V EB038703
     K06B07X  C2006 01 22.41419 07 58 01.30 +35 50 38.1          19.8 V EB038703
     K06B07X  C2006 01 22.45154 07 57 53.74 +35 46 05.6          19.4 V EB038703
     K06B07X  C2006 01 22.45328 07 57 53.56 +35 45 53.8          19.7 V EB038703
     K06B07X  C2006 01 22.45504 07 57 53.17 +35 45 41.2          19.5 V EB038703
     K06B07X  C2006 01 22.45681 07 57 52.77 +35 45 27.3          19.4 V EB038703
     K06B07X  C2006 01 23.24087 07 56 02.14 +34 18 21.1                 EB038G96
     K06B07X  C2006 01 23.24271 07 56 01.78 +34 18 09.0                 EB038G96
     K06B07X  C2006 01 23.24452 07 56 01.42 +34 17 58.5          19.9 V EB038G96
     K06B07X  C2006 01 23.24638 07 56 01.07 +34 17 46.2          19.9 V EB038G96
     K06B07X  C2006 01 23.89551 07 54 32.23 +33 10 27.7                 EB038246
     K06B07X  C2006 01 23.89708 07 54 31.80 +33 10 19.4                 EB038246
     K06B07X  C2006 01 23.90145 07 54 31.05 +33 09 50.7                 EB038246
     K06B07X  C2006 01 23.90294 07 54 30.83 +33 09 43.0                 EB038246
     K06B07X  C2006 01 23.90392 07 54 30.64 +33 09 37.3                 EB038246
     K06B07X  C2006 01 24.09684 07 54 10.40 +32 50 40.7          20.1 R EB038734
     K06B07X  C2006 01 24.10150 07 54 09.66 +32 50 12.7          20.1 R EB038734
     K06B07X  C2006 01 24.10615 07 54 08.94 +32 49 49.0          20.7 R EB038734
     K06B07X  C2006 01 24.28836 07 53 41.35 +32 32 48.9          20.3 V EB038G96
     K06B07X  C2006 01 24.29428 07 53 40.41 +32 32 15.4          19.8 V EB038G96
     K06B07X  C2006 01 24.30019 07 53 39.40 +32 31 41.3          20.2 V EB038G96
     K06B07X  C2006 01 24.30613 07 53 38.43 +32 31 07.4          20.3 V EB038G96

Observer details:
246 Klet Observatory-KLENOT.  Observers J. Ticha, M. Tichy.  Measurer M. Tichy.
    1.06-m KLENOT Telescope + CCD.
703 Catalina Sky Survey.  Observer R. Hill.  Measurers E. C. Beshore,
    E. J. Christensen, G. J. Garradd, A. D. Grauer, R. E. Hill, R. A. Kowalski,
    S. M. Larson, R. H. McNaught.  0.68-m Schmidt + CCD.
734 Farpoint Observatory.  Observer D. Tibbets.  Measurer G. Hug.  0.7-m
    reflector + CCD.
G96 Mt. Lemmon Survey.  Observers E. C. Beshore, S. M. Larson.  Measurers
    E. C. Beshore, E. J. Christensen, G. J. Garradd, A. D. Grauer, R. E. Hill,
    R. A. Kowalski, S. M. Larson, R. H. McNaught.  1.5-m reflector + CCD.

Orbital elements:
2006 BX7                                                 Earth MOID = 0.0083 AU
Epoch 2006 Mar. 6.0 TT = JDT 2453800.5                  MPC
M  93.29029              (2000.0)            P               Q
n   0.81015631     Peri.   77.46645     +0.85601137     -0.51321330
a   1.1396115      Node   313.37316     +0.43491207     +0.77988053
e   0.2820855      Incl.    4.90100     +0.27945666     +0.35832732
P   1.22           H   24.6           G   0.15           U   8
Residuals in seconds of arc
060122 703  0.9-  0.1-    060123 G96  0.5+  0.0     060123 246  0.8-  0.3+
060122 703  0.9-  1.1-    060123 G96  0.4+  0.6-    060124 734  0.2+  0.3+
060122 703  0.1-  0.9-    060123 G96  0.2+  0.3+    060124 734  0.3-  1.7-
060122 703  0.1-  0.1+    060123 G96  0.3+  0.3-    060124 734  0.5-  0.6+
060122 703  0.7-  0.0     060123 246  1.8+  1.3+    060124 G96  0.4-  0.1+
060122 703  1.3+  0.9+    060123 246 (0.4-  2.2+)   060124 G96  0.2+  0.4+
060122 703  0.7+  1.2+    060123 246  0.8-  0.8-    060124 G96  0.1-  0.0
060122 703  0.0   0.2+    060123 246  0.5-  0.2+    060124 G96  0.2+  0.1+

Ephemeris:
2006 BX7                 a,e,i = 1.14, 0.28, 5                   q = 0.8181
Date    TT    R. A. (2000) Decl.     Delta      r     Elong.  Phase     V
2006 01 25    07 52.33   +31 27.7    0.0832   1.065   165.2    13.7    20.1
2006 01 26    07 50.67   +30 03.9    0.0879   1.070   165.3    13.5    20.2
2006 01 27    07 49.24   +28 48.2    0.0927   1.075   165.1    13.7    20.4
2006 01 28    07 48.03   +27 39.6    0.0976   1.079   164.7    14.0    20.5
2006 01 29    07 46.99   +26 37.2    0.103    1.084   164.1    14.4    20.6
2006 01 30    07 46.10   +25 40.2    0.108    1.089   163.4    15.0    20.8
2006 01 31    07 45.36   +24 48.2    0.113    1.093   162.6    15.7    20.9
2006 02 01    07 44.74   +24 00.4    0.118    1.098   161.7    16.4    21.0
2006 02 02    07 44.24   +23 16.4    0.123    1.103   160.8    17.1    21.2
2006 02 03    07 43.84   +22 35.9    0.129    1.107   159.9    17.8    21.3
2006 02 04    07 43.53   +21 58.5    0.134    1.112   158.9    18.6    21.4
2006 02 05    07 43.31   +21 23.8    0.140    1.117   158.0    19.3    21.5
2006 02 06    07 43.17   +20 51.6    0.145    1.121   157.0    20.1    21.7
2006 02 07    07 43.10   +20 21.7    0.151    1.126   156.1    20.8    21.8
2006 02 08    07 43.11   +19 53.8    0.157    1.131   155.1    21.5    21.9
2006 02 09    07 43.17   +19 27.8    0.163    1.135   154.2    22.3    22.0
2006 02 10    07 43.30   +19 03.5    0.168    1.140   153.2    23.0    22.1
2006 02 11    07 43.49   +18 40.7    0.174    1.144   152.3    23.6    22.2
2006 02 12    07 43.73   +18 19.4    0.180    1.149   151.4    24.3    22.3
2006 02 13    07 44.02   +17 59.4    0.186    1.153   150.5    25.0    22.4
2006 02 14    07 44.36   +17 40.5    0.193    1.158   149.6    25.6    22.5

Timothy B. Spahr             (C) Copyright 2006 MPC           M.P.E.C. 2006-B38

Read MPEC 2006-B37 Read MPEC 2006-B39


Our Web policy. Index to the CBAT/MPC/ICQ pages.


Valid HTML 4.01!